Regional Weather Roundup
Issued by NWS

Home | Current Version | Previous Version | Graphics & Text | Print | Product List | Glossary On
Versions: 1 2 3 4 5 6 7 8 9 10 11 12 13 14 15 16 17 18 19 20 21 22 23 24 25 26 27 28 29 30 31 32 33 34 35 36 37 38 39 40 41 42 43 44 45 46 47 48 49 50
000
ASUS43 KIND 201709
RWRIN

WEATHER ROUNDUP FOR INDIANA
NATIONAL WEATHER SERVICE INDIANAPOLIS IN
100 PM EDT SAT SEP 20 2014

NOTE: "FAIR" INDICATES FEW OR NO CLOUDS BELOW 12,000 FEET WITH NO
SIGNIFICANT WEATHER AND/OR OBSTRUCTIONS TO VISIBILITY.

* - STATION DOES NOT REPORT WEATHER SUCH AS PRECIPITATION OR FOG.

+ - STATION NOT QUALITY CONTROLLED BY THE NATIONAL WEATHER SERVICE.
    USE DATA WITH CAUTION...ESPECIALLY DEWPOINT AND RELATIVE
    HUMIDITY OBSERVATIONS.

INZ001>003-010>013-019-020-201800-
NORTHWEST INDIANA

CITY           SKY/WX    TMP DP  RH WIND       PRES   REMARKS
GARY /AIRPORT/ PTSUNNY   77  64  65 S14       29.87F
KNOX *+        MOSUNNY   78  62  58 SW17G24   29.89F
LA PORTE +     MOSUNNY   76  62  63 SW14G25   29.89F
MICHIGAN CITY+ MOSUNNY   73  61  64 SW13G23   29.87F
MONTICELLO +   PTSUNNY   76  64  67 S16G23    29.94F
RENSSELAER +   MOSUNNY   79  66  65 S14G25    29.91F
VALPARAISO     MOSUNNY   77  63  61 S15G22    29.89F

$$

LMZ046-743>745-201800-
SOUTHERN LAKE MICHIGAN

STATION/POSITION TIME  TEMP WIND        PRES
                       AIR  DIR/SP/G
                 (UTC) (F)  (DEG/KT/KT) (MB)
MICHIGAN CITY    1700   73  180/ 18/ 23   N/A

$$

INZ004-005-014>016-021>024-201800-
NORTH CENTRAL INDIANA

CITY           SKY/WX    TMP DP  RH WIND       PRES   REMARKS
GOSHEN         MOSUNNY   77  62  59 SW18G28   29.91F
LOGANSPORT +   PTSUNNY   73  61  64 SW20      29.96F
PERU/GRISSOM   PTSUNNY   75  67  77 SW16G28   29.95F
ROCHESTER +    MOSUNNY   77  63  61 SW18G25   29.94F
SOUTH BEND     MOSUNNY   78  62  57 SW17G28   29.89F
WARSAW +       MOSUNNY   73  63  68 SW10G20   29.93F

$$

INZ006>009-017-018-025>027-201800-
NORTHEAST INDIANA

CITY           SKY/WX    TMP DP  RH WIND       PRES   REMARKS
ANGOLA *+      SUNNY     75  61  60 SW20      29.91F
AUBURN +       PTSUNNY   75  57  53 SW12      29.95F
FORT WAYNE     PTSUNNY   75  60  59 SW18      29.96F
HUNTINGTON +   PTSUNNY   74  62  66 SW8G22    29.96F

$$

INZ028-029-035-036-043>045-051>053-201800-
WEST CENTRAL INDIANA

CITY           SKY/WX    TMP DP  RH WIND       PRES   REMARKS
GREENCASTLE +  PTSUNNY   73  63  68 S7        30.03F
LAFAYETTE      PTSUNNY   75  62  64 S13G23    29.96F
TERRE HAUTE    PTSUNNY   78  64  61 SW13      30.01F

$$

INZ030>032-037>040-046>048-054>057-064-065-201800-
CENTRAL INDIANA

CITY           SKY/WX    TMP DP  RH WIND       PRES   REMARKS
ANDERSON       SUNNY     75  59  57 SW17G24   30.02F
CP ATTERBURY + PTSUNNY   75  63  64 SW10      30.05F
FRANKFORT +    CLOUDY    77  62  60 SW14G23   30.00F
INDIANAPOLIS   CLOUDY    76  62  62 SW13      30.02F
-EAGLE CREEK   PTSUNNY   76  60  57 SW10G17   30.01F
KOKOMO *+      CLOUDY    77  63  61 SW18G25   29.97F
MARION +       PTSUNNY   76  59  54 SW12G20   29.99F
MT COMFORT *+  PTSUNNY   75  54  46 SW12G18   30.03F
SHELBYVILLE    PTSUNNY   79  62  56 SW15G21   30.03F
ZIONSVILLE +   PTSUNNY   76  61  59 SW15G21   30.02F

$$

INZ033-034-041-042-049-050-058-059-201800-
EAST CENTRAL INDIANA

CITY           SKY/WX    TMP DP  RH WIND       PRES   REMARKS
MUNCIE         PTSUNNY   76  51  41 SW13      30.00F

$$

INZ060-061-067>069-081>083-085>088-201800-
SOUTHWEST INDIANA

CITY           SKY/WX    TMP DP  RH WIND       PRES   REMARKS
EVANSVILLE     SUNNY     82  66  58 S13       30.06F
WASHINGTON +   PTSUNNY   79  67  66 SW12      30.04F

$$

INZ062-063-066-070>080-084-089>092-201800-
SOUTH CENTRAL AND SOUTHEAST INDIANA

CITY           SKY/WX    TMP DP  RH WIND       PRES   REMARKS
BLOOMINGTON    PTSUNNY   76  64  66 SW10      30.05F

$$




USA.gov is the U.S. government's official web portal to all federal, state and local government web resources and services.